Moab, UT

12:26 PM MDT on April 20, 2018 (GMT -0600)
Canyonlands

Weather History for KCNY - October, 2013

Change the Weather History Date:

Thursday, October 10, 2013

  Actual Average Record
Temperature  
Mean Temperature 55 °F 56 °F  
Max Temperature 64 °F 71 °F 91 °F (1953)
Min Temperature 46 °F 41 °F 27 °F (1936)
Degree Days  
Heating Degree Days 10 9  
Month to date heating degree days 96 70  
Since 1 July heating degree days 147 128  
Cooling Degree Days 0 0  
Month to date cooling degree days 0 4  
Year to date cooling degree days 1643 1288  
Growing Degree Days 5 (Base 50)    
Moisture  
Dew Point 43 °F    
Average Humidity 63    
Maximum Humidity 100    
Minimum Humidity 25    
Precipitation  
Precipitation 0.35 in 0.04 in 0.35 in (2013)
Month to date precipitation 0.39 0.43  
Year to date precipitation 5.35 6.77  
Sea Level Pressure  
Sea Level Pressure 29.69 in    
Wind  
Wind Speed 8 mph (WNW)    
Max Wind Speed 26 mph    
Max Gust Speed 37 mph    
Visibility 9 miles    
Events Rain , Thunderstorm    
T = Trace of Precipitation, MM = Missing Value Source: NWS Daily Summary

Daily Weather History Graph

Daily Weather History Graph

Search for Another Location

Airport or City:

Astronomy

Oct. 10, 2013 Rise Set
Actual Time 7:23 AM MDT 6:47 PM MDT
Civil Twilight 6:57 AM MDT 7:14 PM MDT
Nautical Twilight 6:26 AM MDT 7:44 PM MDT
Astronomical Twilight 5:55 AM MDT 8:15 PM MDT
Moon 1:15 PM MDT (10/10) 11:31 PM MDT (10/10)
Length of Visible Light 12h 17m
Length of Day
11h 23m
Waxing Crescent, 36% of the Moon is Illuminated
Oct 10
Waxing Crescent
Oct 11
First Quarter
Oct 18
Full
Oct 26
Last Quarter
Nov 3
New

Hourly Weather History & Observations

Time (MDT) Temp. Windchill Dew Point Humidity Pressure Visibility Wind Dir Wind Speed Gust Speed Precip Events Conditions
12:53 AM 61.0 °F - 25.0 °F 25% 29.58 in 10.0 mi South 3.5 mph - N/A   Mostly Cloudy
1:53 AM 64.0 °F - 28.9 °F 27% 29.57 in 10.0 mi SSW 24.2 mph 36.8 mph 0.00 in   Overcast
2:53 AM 57.9 °F - 37.0 °F 46% 29.61 in 10.0 mi WSW 21.9 mph 34.5 mph 0.00 in   Mostly Cloudy
3:53 AM 51.1 °F - 46.0 °F 83% 29.65 in 9.0 mi SW 15.0 mph - 0.04 in Rain Light Rain
4:53 AM 52.0 °F - 45.0 °F 77% 29.60 in 10.0 mi SE 17.3 mph 25.3 mph 0.01 in   Overcast
5:53 AM 48.9 °F - 43.0 °F 80% 29.62 in 10.0 mi North 6.9 mph - 0.00 in Rain Light Rain
6:14 AM 48.2 °F - 44.6 °F 87% 29.74 in 10.0 mi NW 11.5 mph - 0.00 in   Overcast
6:39 AM 46.4 °F - 42.8 °F 87% 29.75 in 2.0 mi Calm Calm - 0.09 in Rain Heavy Rain
6:51 AM 46.4 °F 41.9 °F 44.6 °F 93% 29.71 in 5.0 mi North 9.2 mph - 0.10 in Rain Light Rain
6:53 AM 46.0 °F 43.9 °F 44.1 °F 93% 29.62 in 6.0 mi North 4.6 mph - 0.10 in Rain Light Rain
7:53 AM 46.9 °F - 45.0 °F 93% 29.64 in 10.0 mi Calm Calm - 0.03 in Rain Light Rain
8:51 AM 46.4 °F - 44.6 °F 93% 29.77 in 2.0 mi Calm Calm - 0.08 in Rain Rain
8:53 AM 46.9 °F - 46.0 °F 97% 29.68 in 2.0 mi Calm Calm - 0.08 in Rain Light Rain
9:01 AM 46.4 °F 42.4 °F 44.6 °F 93% 29.74 in 7.0 mi North 8.1 mph - 0.00 in Rain Light Rain
9:53 AM 46.9 °F - 45.0 °F 93% 29.67 in 7.0 mi Calm Calm - 0.02 in Rain Light Rain
10:53 AM 48.0 °F - 46.0 °F 93% 29.67 in 10.0 mi ESE 11.5 mph - 0.02 in   Overcast
11:53 AM 48.0 °F - 44.1 °F 86% 29.66 in 10.0 mi ESE 12.7 mph - 0.00 in   Mostly Cloudy
12:53 PM 52.0 °F - 44.1 °F 74% 29.64 in 10.0 mi SSE 12.7 mph - N/A   Partly Cloudy
1:53 PM 55.9 °F - 43.0 °F 62% 29.59 in 10.0 mi SSE 11.5 mph 18.4 mph N/A   Partly Cloudy
2:53 PM 54.0 °F - 42.1 °F 64% 29.61 in 10.0 mi SSE 11.5 mph - N/A   Scattered Clouds
3:53 PM 50.0 °F - 44.1 °F 80% 29.65 in 10.0 mi WNW 20.7 mph 25.3 mph N/A   Overcast
4:00 PM 50.0 °F - 44.6 °F 82% 29.72 in 10.0 mi NW 18.4 mph - N/A   Overcast
4:53 PM 48.0 °F - 45.0 °F 89% 29.69 in 9.0 mi NW 12.7 mph - 0.03 in Rain Light Rain
5:42 PM 48.2 °F - 44.6 °F 87% 29.78 in 10.0 mi WNW 12.7 mph - 0.01 in Thunderstorm Overcast
5:53 PM 46.9 °F - 43.0 °F 86% 29.74 in 10.0 mi WNW 10.4 mph - 0.01 in   Mostly Cloudy
6:53 PM 46.9 °F - 42.1 °F 83% 29.77 in 10.0 mi WNW 5.8 mph - N/A   Mostly Cloudy
7:53 PM 46.9 °F - 44.1 °F 90% 29.77 in 10.0 mi Calm Calm - 0.00 in   Mostly Cloudy
8:53 PM 46.9 °F - 44.1 °F 90% 29.78 in 10.0 mi Calm Calm - N/A   Mostly Cloudy
9:53 PM 46.9 °F - 43.0 °F 86% 29.80 in 10.0 mi Calm Calm - N/A   Overcast
10:53 PM 48.0 °F - 42.1 °F 80% 29.81 in 10.0 mi Calm Calm - 0.01 in Rain Light Rain
11:53 PM 46.0 °F 44.8 °F 42.1 °F 86% 29.82 in 10.0 mi North 3.5 mph - 0.00 in   Mostly Cloudy